TimeCDT,TemperatureF,Dew PointF,Humidity,Sea Level PressureIn,VisibilityMPH,Wind Direction,Wind SpeedMPH,Gust SpeedMPH,PrecipitationIn,Events,Conditions,WindDirDegrees,DateUTC
12:53 AM,78.1,64.9,64,30.04,10.0,SSE,5.8,-,N/A,,Mostly Cloudy,160,2012-10-05 05:53:00
1:27 AM,77.0,64.4,65,30.06,10.0,South,9.2,-,N/A,,Overcast,170,2012-10-05 06:27:00
1:53 AM,75.9,66.0,71,30.04,10.0,South,11.5,-,N/A,,Mostly Cloudy,170,2012-10-05 06:53:00
2:35 AM,75.2,66.2,73,30.06,10.0,South,10.4,-,N/A,,Overcast,180,2012-10-05 07:35:00
2:53 AM,75.2,66.2,73,30.06,10.0,South,10.4,-,N/A,,Mostly Cloudy,170,2012-10-05 07:53:00
3:05 AM,75.2,66.2,73,30.05,10.0,South,10.4,-,N/A,,Overcast,180,2012-10-05 08:05:00
3:53 AM,75.0,68.0,79,30.02,10.0,South,12.7,-,N/A,,Mostly Cloudy,170,2012-10-05 08:53:00
4:53 AM,72.0,63.0,73,30.03,10.0,West,10.4,-,N/A,,Mostly Cloudy,260,2012-10-05 09:53:00
5:53 AM,69.1,61.0,75,30.03,10.0,West,5.8,-,N/A,,Mostly Cloudy,260,2012-10-05 10:53:00
6:53 AM,69.1,60.1,73,30.04,10.0,WSW,5.8,-,N/A,,Mostly Cloudy,250,2012-10-05 11:53:00
7:45 AM,68.0,60.8,78,30.07,10.0,WSW,9.2,-,N/A,,Mostly Cloudy,250,2012-10-05 12:45:00
7:53 AM,68.0,60.1,76,30.05,10.0,WSW,6.9,-,N/A,,Mostly Cloudy,240,2012-10-05 12:53:00
8:53 AM,70.0,60.1,71,30.06,10.0,West,8.1,-,N/A,,Mostly Cloudy,270,2012-10-05 13:53:00
9:53 AM,73.0,62.1,68,30.06,10.0,West,8.1,-,N/A,,Mostly Cloudy,270,2012-10-05 14:53:00
10:44 AM,73.4,62.6,69,30.08,10.0,West,4.6,-,N/A,,Mostly Cloudy,260,2012-10-05 15:44:00
10:53 AM,73.9,63.0,68,30.06,10.0,West,5.8,-,N/A,,Mostly Cloudy,260,2012-10-05 15:53:00
11:33 AM,77.0,62.6,61,30.09,10.0,Variable,5.8,-,N/A,,Mostly Cloudy,0,2012-10-05 16:33:00
11:53 AM,78.8,64.4,61,30.08,10.0,West,9.2,-,N/A,,Mostly Cloudy,260,2012-10-05 16:53:00
12:53 PM,80.1,64.0,58,30.04,10.0,WSW,6.9,-,N/A,,Mostly Cloudy,240,2012-10-05 17:53:00
1:53 PM,82.9,64.9,54,30.01,10.0,WNW,10.4,-,N/A,,Mostly Cloudy,290,2012-10-05 18:53:00
2:53 PM,81.0,64.0,56,29.99,10.0,NW,9.2,-,N/A,,Mostly Cloudy,310,2012-10-05 19:53:00
3:53 PM,82.0,63.0,52,29.98,10.0,NNW,12.7,-,N/A,,Mostly Cloudy,340,2012-10-05 20:53:00
4:53 PM,80.1,62.1,54,29.97,10.0,NNW,16.1,-,N/A,,Scattered Clouds,330,2012-10-05 21:53:00
5:53 PM,78.1,60.1,54,29.97,10.0,North,12.7,-,N/A,,Mostly Cloudy,360,2012-10-05 22:53:00
6:53 PM,73.9,57.0,55,29.98,10.0,North,16.1,-,N/A,,Overcast,10,2012-10-05 23:53:00
7:53 PM,64.4,51.8,64,30.03,10.0,North,23.0,28.8,N/A,,Scattered Clouds,10,2012-10-06 00:53:00
8:53 PM,61.0,51.1,70,30.05,10.0,NNE,18.4,-,N/A,,Overcast,20,2012-10-06 01:53:00
9:53 PM,60.1,50.0,69,30.07,10.0,NNE,17.3,-,N/A,,Overcast,20,2012-10-06 02:53:00
10:53 PM,59.0,50.0,72,30.08,10.0,NNE,18.4,-,N/A,,Overcast,30,2012-10-06 03:53:00
11:53 PM,57.9,48.0,70,30.09,10.0,NNE,13.8,-,N/A,,Overcast,30,2012-10-06 04:53:00